Satellite-Ground Cal/Val Site Overpasses Predictions

Prediction of Satellite NPP Overpassing Cal/Val Site: Antarctic Dome C

Ground Cal/Val Site Location: Latitude: -75.10, Longitude: 123.35; Satellite-Ground Site NADIR distance within 100 km.

Table of predicted overpasses for the next 14.0 days since TLE Epoch: 5/20/2012
Interval Starting Time Ending Time Minimum Distance Time Minimum Distance (km)
1 05/20/2012 07:30:14 05/20/2012 07:30:44 05/20/2012 07:30:29 2.58
2 05/23/2012 14:53:38 05/23/2012 14:54:07 05/23/2012 14:53:53 20.90
3 05/24/2012 14:34:56 05/24/2012 14:35:10 05/24/2012 14:35:03 86.31
4 05/25/2012 07:36:27 05/25/2012 07:36:54 05/25/2012 07:36:41 38.37
5 05/26/2012 07:17:41 05/26/2012 07:18:01 05/26/2012 07:17:51 71.72
6 05/28/2012 14:59:54 05/28/2012 15:00:18 05/28/2012 15:00:06 57.70
7 05/29/2012 14:41:02 05/29/2012 14:41:27 05/29/2012 14:41:15 51.56
8 05/30/2012 07:42:44 05/30/2012 07:43:03 05/30/2012 07:42:53 73.41
9 05/31/2012 07:23:49 05/31/2012 07:24:17 05/31/2012 07:24:03 34.52
